Weather History for Mobile, AL

Change the Weather History Date:

Wednesday, November 21, 2012

  Actual Average Record
Temperature  
Mean Temperature 59 °F 58 °F  
Max Temperature 76 °F 69 °F 82 °F (1994)
Min Temperature 41 °F 47 °F 25 °F (1887)
Degree Days  
Heating Degree Days 6 8  
Month to date heating degree days 161 120  
Since 1 July heating degree days 216 175  
Cooling Degree Days 0 1  
Month to date cooling degree days 15 33  
Year to date cooling degree days 2697 2495  
Growing Degree Days 9 (Base 50)    
Moisture  
Dew Point 46 °F    
Average Humidity 69    
Maximum Humidity 100    
Minimum Humidity 38    
Precipitation  
Precipitation 0.00 in 0.17 in 2.39 in (1977)
Month to date precipitation 0.29 3.63  
Year to date precipitation 64.48 59.59  
Snow  
Snow 0.00 in 0.00 in 0.00 in (2002)
Month to date snowfall 0.0 0.0  
Since 1 July snowfall 0.0 0.0  
Snow Depth 0.00 in    
Sea Level Pressure  
Sea Level Pressure 30.17 in    
Wind  
Wind Speed 3 mph (NW)    
Max Wind Speed 13 mph    
Max Gust Speed 18 mph    
Visibility 10 miles    
Events      
T = Trace of Precipitation, MM = Missing Value Source: NWS Daily Summary

Daily Weather History Graph

Daily Weather History Graph

Search for Another Location

Airport:

Trip Planner

Search our weather history database for the weather conditions in past years. The results will help you decide how hot, cold, wet, or windy it might be!

Date:

Astronomy

Nov. 21, 2012 Rise Set
Actual Time 6:24 AM CST 4:52 PM CST
Civil Twilight 5:58 AM CST 5:18 PM CST
Nautical Twilight 5:29 AM CST 5:48 PM CST
Astronomical Twilight 5:00 AM CST 6:17 PM CST
Moon 12:46 PM CST (11/21) 12:08 AM CST (11/21)
Length of Visible Light 11h 19m
Length of Day
10h 28m
First Quarter, 62% of the Moon is Illuminated
Nov 21
First Quarter
Nov 28
Full
Dec 6
Last Quarter
Dec 13
New
Dec 19
First Quarter

Hourly Weather History & Observations

Time (CST) Temp. Windchill Dew Point Humidity Pressure Visibility Wind Dir Wind Speed Gust Speed Precip Events Conditions
12:56 AM 42.1 °F 39.2 °F 39.0 °F 89% 30.15 in 9.0 mi West 4.6 mph - N/A   Clear
1:56 AM 42.1 °F 40.2 °F 41.0 °F 96% 30.15 in 8.0 mi WNW 3.5 mph - N/A   Partly Cloudy
2:56 AM 46.0 °F - 44.1 °F 93% 30.15 in 9.0 mi Calm Calm - N/A   Clear
3:56 AM 46.0 °F 44.8 °F 44.1 °F 93% 30.15 in 10.0 mi NW 3.5 mph - N/A   Partly Cloudy
4:56 AM 44.1 °F 42.5 °F 42.1 °F 93% 30.16 in 10.0 mi NNW 3.5 mph - N/A   Partly Cloudy
5:56 AM 43.0 °F - 42.1 °F 97% 30.17 in 10.0 mi Calm Calm - N/A   Partly Cloudy
6:56 AM 46.9 °F - 44.1 °F 90% 30.18 in 10.0 mi Calm Calm - N/A   Scattered Clouds
7:56 AM 55.0 °F - 48.0 °F 77% 30.20 in 10.0 mi NW 3.5 mph - N/A   Scattered Clouds
8:56 AM 62.1 °F - 48.0 °F 60% 30.21 in 10.0 mi Calm Calm - N/A   Scattered Clouds
9:56 AM 68.0 °F - 46.9 °F 47% 30.21 in 10.0 mi NNW 6.9 mph - N/A   Clear
10:56 AM 71.1 °F - 46.9 °F 42% 30.19 in 10.0 mi NNW 4.6 mph - N/A   Clear
11:56 AM 73.9 °F - 48.0 °F 40% 30.16 in 10.0 mi NNW 8.1 mph - N/A   Partly Cloudy
12:56 PM 73.9 °F - 48.0 °F 40% 30.14 in 10.0 mi NW 9.2 mph - N/A   Scattered Clouds
1:56 PM 73.0 °F - 46.9 °F 39% 30.12 in 10.0 mi NNW 6.9 mph - N/A   Scattered Clouds
2:56 PM 73.0 °F - 46.9 °F 39% 30.12 in 10.0 mi NW 8.1 mph - N/A   Partly Cloudy
3:56 PM 73.0 °F - 46.9 °F 39% 30.13 in 10.0 mi North 8.1 mph - N/A   Partly Cloudy
4:56 PM 68.0 °F - 48.0 °F 49% 30.14 in 10.0 mi NNW 3.5 mph - N/A   Partly Cloudy
5:56 PM 59.0 °F - 48.0 °F 67% 30.15 in 10.0 mi Calm Calm - N/A   Clear
6:56 PM 55.0 °F - 48.0 °F 77% 30.17 in 10.0 mi Calm Calm - N/A   Clear
7:56 PM 52.0 °F - 46.9 °F 83% 30.18 in 10.0 mi Calm Calm - N/A   Clear
8:56 PM 50.0 °F - 46.9 °F 89% 30.19 in 10.0 mi Calm Calm - N/A   Clear
9:56 PM 51.1 °F - 46.9 °F 86% 30.19 in 9.0 mi Calm Calm - N/A   Clear
10:56 PM 46.9 °F - 45.0 °F 93% 30.19 in 8.0 mi Calm Calm - N/A   Clear
11:56 PM 46.9 °F - 45.0 °F 93% 30.19 in 9.0 mi Calm Calm - N/A   Clear